Weather History for KIWA - August, 2014

Change the Weather History Date:

Monday, August 4, 2014

  Actual Average Record
Temperature  
Mean Temperature 89 °F -  
Max Temperature 100 °F 101 °F 120 °F (2010)
Min Temperature 78 °F 79 °F 77 °F (2005)
Cooling Degree Days 24    
Growing Degree Days 39 (Base 50)    
Moisture  
Dew Point 57 °F    
Average Humidity 41    
Maximum Humidity 65    
Minimum Humidity 15    
Precipitation  
Precipitation 0.00 in - - ()
Sea Level Pressure  
Sea Level Pressure 29.94 in    
Wind  
Wind Speed 5 mph (SW)    
Max Wind Speed 15 mph    
Max Gust Speed 21 mph    
Visibility 12 miles    
Events      
Averages and records for this station are not official NWS values.
T = Trace of Precipitation, MM = Missing Value Source: NWS Daily Summary

Daily Weather History Graph

Daily Weather History Graph

Search for Another Location

Airport or City:

Trip Planner

Search our weather history database for the weather conditions in past years. The results will help you decide how hot, cold, wet, or windy it might be!

Date:

Astronomy

Aug. 04, 2014 Rise Set
Actual Time 5:41 AM MST 7:23 PM MST
Civil Twilight 5:14 AM MST 7:50 PM MST
Nautical Twilight 4:42 AM MST 8:22 PM MST
Astronomical Twilight 4:08 AM MST 8:56 PM MST
Moon 1:40 PM MST (8/4) No Moon Set
Length of Visible Light 14h 35m
Length of Day
13h 41m
First Quarter, 58% of the Moon is Illuminated
Aug 4
First Quarter
Aug 10
Full
Aug 17
Last Quarter
Aug 25
New
Sep 2
First Quarter

Hourly Weather History & Observations

Time (MST) Temp. Heat Index Dew Point Humidity Pressure Visibility Wind Dir Wind Speed Gust Speed Precip Events Conditions
12:15 AM 80.6 °F 82.3 °F 64.4 °F 58% 29.97 in 10.0 mi SE 4.6 mph - N/A   Clear
12:35 AM 80.6 °F 82.3 °F 64.4 °F 58% 29.97 in 10.0 mi SSE 5.8 mph - N/A   Clear
12:55 AM 80.6 °F 82.3 °F 64.4 °F 58% 29.96 in 10.0 mi South 5.8 mph - N/A   Clear
1:15 AM 80.6 °F 82.3 °F 64.4 °F 58% 29.97 in 10.0 mi SSE 5.8 mph - N/A   Clear
1:35 AM 78.8 °F - 64.4 °F 61% 29.96 in 10.0 mi SSE 5.8 mph - N/A   Clear
1:55 AM 78.8 °F - 64.4 °F 61% 29.96 in 10.0 mi SE 4.6 mph - N/A   Clear
2:15 AM 78.8 °F - 64.4 °F 61% 29.96 in 10.0 mi SE 4.6 mph - N/A   Clear
2:35 AM 78.8 °F - 64.4 °F 61% 29.96 in 10.0 mi ESE 3.5 mph - N/A   Clear
2:55 AM 78.8 °F - 64.4 °F 61% 29.96 in 10.0 mi Calm Calm - N/A   Clear
3:15 AM 78.8 °F - 64.4 °F 61% 29.95 in 10.0 mi Calm Calm - N/A   Clear
3:35 AM 78.8 °F - 64.4 °F 61% 29.96 in 10.0 mi SSE 5.8 mph - N/A   Clear
3:55 AM 78.8 °F - 66.2 °F 65% 29.96 in 10.0 mi SSE 5.8 mph - N/A   Clear
4:15 AM 78.8 °F - 66.2 °F 65% 29.96 in 10.0 mi SSE 3.5 mph - N/A   Clear
4:35 AM 78.8 °F - 66.2 °F 65% 29.96 in 10.0 mi SSE 3.5 mph - N/A   Clear
4:47 AM 78.8 °F - 66.2 °F 65% 29.96 in 20.0 mi SE 3.5 mph - N/A   Scattered Clouds
4:55 AM 78.8 °F - 66.2 °F 65% 29.97 in 10.0 mi Calm Calm - N/A   Clear
5:15 AM 78.8 °F - 64.4 °F 61% 29.97 in 10.0 mi Calm Calm - N/A   Clear
5:35 AM 78.8 °F - 64.4 °F 61% 29.98 in 10.0 mi Calm Calm - N/A   Clear
5:47 AM 78.8 °F - 64.4 °F 61% 29.98 in 45.0 mi SE 5.8 mph - N/A   Scattered Clouds
6:47 AM 78.8 °F - 64.4 °F 61% 29.98 in 45.0 mi ESE 4.6 mph - N/A   Partly Cloudy
7:47 AM 82.4 °F 83.9 °F 64.4 °F 54% 30.00 in 45.0 mi Variable 3.5 mph - N/A   Partly Cloudy
8:47 AM 84.2 °F 85.6 °F 64.4 °F 51% 30.00 in 45.0 mi ENE 4.6 mph - N/A   Partly Cloudy
9:49 AM 87.8 °F 88.5 °F 62.6 °F 43% 29.99 in 45.0 mi Variable 3.5 mph - N/A   Partly Cloudy
10:47 AM 93.2 °F 91.9 °F 57.2 °F 30% 29.99 in 45.0 mi SSE 3.5 mph - N/A   Partly Cloudy
11:47 AM 93.2 °F 91.9 °F 57.2 °F 30% 29.97 in 45.0 mi South 5.8 mph - N/A   Scattered Clouds
12:50 PM 96.8 °F 95.8 °F 57.2 °F 27% 29.94 in 45.0 mi SW 5.8 mph - N/A   Scattered Clouds
1:47 PM 98.6 °F 97.2 °F 55.4 °F 24% 29.92 in 45.0 mi West 3.5 mph - N/A   Scattered Clouds
2:47 PM 100.4 °F - 48.2 °F 17% 29.90 in 45.0 mi WSW 11.5 mph 17.3 mph N/A   Scattered Clouds
3:47 PM 100.4 °F - 46.4 °F 16% 29.87 in 45.0 mi SW 13.8 mph 20.7 mph N/A   Scattered Clouds
4:47 PM 100.4 °F - 44.6 °F 15% 29.85 in 45.0 mi SSW 15.0 mph 20.7 mph N/A   Scattered Clouds
5:47 PM 100.4 °F - 44.6 °F 15% 29.84 in 45.0 mi SW 8.1 mph - N/A   Scattered Clouds
6:47 PM 98.6 °F - 44.6 °F 16% 29.85 in 45.0 mi SW 12.7 mph - N/A   Scattered Clouds
7:47 PM 96.8 °F 95.1 °F 55.4 °F 25% 29.87 in 20.0 mi West 12.7 mph - N/A   Partly Cloudy
7:55 PM 95.0 °F 92.7 °F 53.6 °F 25% 29.87 in 10.0 mi WNW 12.7 mph - N/A   Clear
8:15 PM 93.2 °F - 51.8 °F 24% 29.88 in 10.0 mi WNW 10.4 mph - N/A   Clear
8:35 PM 93.2 °F - 50.0 °F 23% 29.89 in 10.0 mi WNW 12.7 mph - N/A   Clear
8:47 PM 93.2 °F - 51.8 °F 24% 29.89 in 20.0 mi WNW 10.4 mph - N/A   Partly Cloudy
8:55 PM 93.2 °F - 50.0 °F 23% 29.90 in 10.0 mi WNW 11.5 mph - N/A   Clear
9:15 PM 93.2 °F - 50.0 °F 23% 29.90 in 10.0 mi West 9.2 mph - N/A   Clear
9:35 PM 93.2 °F - 50.0 °F 23% 29.91 in 10.0 mi WNW 8.1 mph - N/A   Clear
9:47 PM 93.2 °F - 51.8 °F 24% 29.92 in 20.0 mi West 9.2 mph - N/A   Partly Cloudy
9:55 PM 93.2 °F - 51.8 °F 24% 29.92 in 10.0 mi WNW 9.2 mph - N/A   Clear
10:15 PM 93.2 °F 90.8 °F 53.6 °F 26% 29.92 in 10.0 mi WNW 8.1 mph - N/A   Clear
10:35 PM 89.6 °F - 51.8 °F 27% 29.92 in 10.0 mi WNW 8.1 mph - N/A   Clear
10:47 PM 91.4 °F - 51.8 °F 26% 29.92 in 20.0 mi West 8.1 mph - N/A   Clear
10:55 PM 89.6 °F - 51.8 °F 27% 29.93 in 10.0 mi WNW 5.8 mph - N/A   Clear
11:15 PM 87.8 °F - 50.0 °F 27% 29.93 in 10.0 mi West 3.5 mph - N/A   Clear
11:35 PM 86.0 °F - 50.0 °F 29% 29.93 in 10.0 mi Calm Calm - N/A   Clear
11:47 PM 84.2 °F - 51.8 °F 33% 29.93 in 20.0 mi Calm Calm - N/A   Clear
11:55 PM 86.0 °F - 51.8 °F 31% 29.93 in 10.0 mi Calm Calm - N/A   Clear